Location: ??????
(38.3184°N, 23.6932°E)
Time: 01:04:22
(UTC+00:00)

Cosmos 2263 Rocket - Pass Details

Date: 16 October 2021
Orbit: 825 x 847 km, 71.0° (Epoch: 04 December)

Event Time Altitude Azimuth Distance (km) Brightness Sun altitude
Rises 17:22:20 0° 342° (NNW) 3,370 5.6 -19.7°
Reaches altitude 10° 17:24:51 10° 347° (NNW) 2,432 4.8 -20.2°
Maximum altitude 17:30:17 53° 64° (ENE) 1,013 2.2 -21.2°
Enters shadow 17:31:23 45° 102° (ESE) 1,109 2.3 -21.5°
